M I D A S
Marine Information and Data Acquisition System
Tripno 1511 of the Zeeleeuw from 2008-06-26 07:06:18 to 2008-06-26 14:06:15
Back to CruiseResearch ActivitiesStationsMapUnderway DataData graphs

EquipmentUnitsComments
TimeDGPSUTC
LatitudeDGPSDM.mWGS84
LongitudeDGPSDM.mWGS84
SpeedMeteo Stationm/sRelative wind speed
DirectionMeteo StationdegRelative wind direction
TemperatureMeteo Stationdeg CelciusAir temperature
PressureMeteo StationPaAtmospheric pressure
HumidityMeteo Station%Relative humidity
Missing or incorrect values are displayed as -999
Metereological data collected by the RV Zeeleeuw from 2008-06-26 07:00:21 to 2008-06-26 14:08:35
                                                                                    Next 1000 lines
Time Latitude Longitude Speed Direction Temperature Pressure Humidity
2008-06-26 07:00:32 51°13.623 2°56.044 -999 -999 -999 -999 -999
2008-06-26 07:00:36 51°13.624 2°56.042 -999 -999 -999 -999 -999
2008-06-26 07:00:42 51°13.625 2°56.039 -999 -999 -999 -999 -999
2008-06-26 07:00:46 51°13.626 2°56.036 -999 -999 -999 -999 -999
2008-06-26 07:00:52 51°13.628 2°56.03 -999 -999 -999 -999 -999
2008-06-26 07:00:57 51°13.629 2°56.025 -999 -999 -999 -999 -999
2008-06-26 07:01:02 51°13.631 2°56.019 -999 -999 -999 -999 -999
2008-06-26 07:01:07 51°13.633 2°56.013 -999 -999 -999 -999 -999
2008-06-26 07:01:12 51°13.636 2°56.006 -999 -999 -999 -999 -999
2008-06-26 07:01:17 51°13.638 2°55.998 -999 -999 -999 -999 -999
2008-06-26 07:01:22 51°13.641 2°55.99 -999 -999 -999 -999 -999
2008-06-26 07:01:27 51°13.643 2°55.982 -999 -999 -999 -999 -999
2008-06-26 07:01:32 51°13.646 2°55.973 -999 -999 -999 -999 -999
2008-06-26 07:01:37 51°13.649 2°55.964 -999 -999 -999 -999 -999
2008-06-26 07:01:42 51°13.652 2°55.954 -999 -999 -999 -999 -999
2008-06-26 07:01:47 51°13.654 2°55.945 -999 -999 -999 -999 -999
2008-06-26 07:01:52 51°13.657 2°55.935 -999 -999 -999 -999 -999
2008-06-26 07:01:56 51°13.659 2°55.927 -999 -999 -999 -999 -999
2008-06-26 07:02:02 51°13.663 2°55.915 -999 -999 -999 -999 -999
2008-06-26 07:02:07 51°13.666 2°55.905 -999 -999 -999 -999 -999
2008-06-26 07:02:12 51°13.668 2°55.895 -999 -999 -999 -999 -999
2008-06-26 07:02:17 51°13.671 2°55.885 -999 -999 -999 -999 -999
2008-06-26 07:02:22 51°13.673 2°55.875 -999 -999 -999 -999 -999
2008-06-26 07:02:27 51°13.676 2°55.865 -999 -999 -999 -999 -999
2008-06-26 07:02:32 51°13.678 2°55.856 -999 -999 -999 -999 -999
2008-06-26 07:02:37 51°13.68 2°55.848 -999 -999 -999 -999 -999
2008-06-26 07:02:42 51°13.681 2°55.839 -999 -999 -999 -999 -999
2008-06-26 07:02:47 51°13.683 2°55.831 -999 -999 -999 -999 -999
2008-06-26 07:02:52 51°13.684 2°55.823 -999 -999 -999 -999 -999
2008-06-26 07:02:57 51°13.686 2°55.815 -999 -999 -999 -999 -999
2008-06-26 07:03:02 51°13.687 2°55.807 -999 -999 -999 -999 -999
2008-06-26 07:03:06 51°13.687 2°55.801 -999 -999 -999 -999 -999
2008-06-26 07:03:12 51°13.689 2°55.793 -999 -999 -999 -999 -999
2008-06-26 07:03:17 51°13.689 2°55.786 -999 -999 -999 -999 -999
2008-06-26 07:03:21 51°13.69 2°55.781 -999 -999 -999 -999 -999
2008-06-26 07:03:27 51°13.69 2°55.774 -999 -999 -999 -999 -999
2008-06-26 07:03:31 51°13.691 2°55.769 -999 -999 -999 -999 -999
2008-06-26 07:03:37 51°13.691 2°55.763 -999 -999 -999 -999 -999
2008-06-26 07:03:41 51°13.691 2°55.758 -999 -999 -999 -999 -999
2008-06-26 07:03:47 51°13.691 2°55.752 -999 -999 -999 -999 -999
2008-06-26 07:03:52 51°13.691 2°55.747 -999 -999 -999 -999 -999
2008-06-26 07:03:56 51°13.691 2°55.743 -999 -999 -999 -999 -999
2008-06-26 07:04:01 51°13.691 2°55.739 -999 -999 -999 -999 -999
2008-06-26 07:04:07 51°13.691 2°55.733 -999 -999 -999 -999 -999
2008-06-26 07:04:12 51°13.691 2°55.729 -999 -999 -999 -999 -999
2008-06-26 07:04:16 51°13.691 2°55.727 -999 -999 -999 -999 -999
2008-06-26 07:04:22 51°13.691 2°55.726 -999 -999 -999 -999 -999
2008-06-26 07:04:27 51°13.692 2°55.726 -999 -999 -999 -999 -999
2008-06-26 07:04:32 51°13.692 2°55.727 -999 -999 -999 -999 -999
2008-06-26 07:04:36 51°13.693 2°55.728 -999 -999 -999 -999 -999
2008-06-26 07:04:41 51°13.694 2°55.729 -999 -999 -999 -999 -999
2008-06-26 07:04:47 51°13.696 2°55.731 -999 -999 -999 -999 -999
2008-06-26 07:04:52 51°13.697 2°55.733 -999 -999 -999 -999 -999
2008-06-26 07:04:56 51°13.699 2°55.735 -999 -999 -999 -999 -999
2008-06-26 07:05:01 51°13.701 2°55.736 -999 -999 -999 -999 -999
2008-06-26 07:05:06 51°13.704 2°55.738 -999 -999 -999 -999 -999
2008-06-26 07:05:12 51°13.707 2°55.739 -999 -999 -999 -999 -999
2008-06-26 07:05:17 51°13.71 2°55.74 -999 -999 -999 -999 -999
2008-06-26 07:05:21 51°13.712 2°55.74 -999 -999 -999 -999 -999
2008-06-26 07:05:27 51°13.716 2°55.74 -999 -999 -999 -999 -999
2008-06-26 07:05:32 51°13.72 2°55.74 -999 -999 -999 -999 -999
2008-06-26 07:05:36 51°13.723 2°55.739 -999 -999 -999 -999 -999
2008-06-26 07:05:41 51°13.727 2°55.737 -999 -999 -999 -999 -999
2008-06-26 07:05:46 51°13.732 2°55.733 -999 -999 -999 -999 -999
2008-06-26 07:05:52 51°13.739 2°55.728 -999 -999 -999 -999 -999
2008-06-26 07:05:57 51°13.745 2°55.722 -999 -999 -999 -999 -999
2008-06-26 07:06:01 51°13.749 2°55.717 -999 -999 -999 -999 -999
2008-06-26 07:06:07 51°13.758 2°55.708 -999 -999 -999 -999 -999
2008-06-26 07:06:12 51°13.765 2°55.7 -999 -999 -999 -999 -999
2008-06-26 07:06:17 51°13.773 2°55.692 -999 -999 -999 -999 -999
2008-06-26 07:06:22 51°13.782 2°55.683 -999 -999 -999 -999 -999
2008-06-26 07:06:27 51°13.792 2°55.673 -999 -999 -999 -999 -999
2008-06-26 07:06:32 51°13.802 2°55.664 -999 -999 -999 -999 -999
2008-06-26 07:06:36 51°13.81 2°55.657 -999 -999 -999 -999 -999
2008-06-26 07:06:41 51°13.821 2°55.648 -999 -999 -999 -999 -999
2008-06-26 07:06:47 51°13.833 2°55.637 -999 -999 -999 -999 -999
2008-06-26 07:06:52 51°13.844 2°55.627 -999 -999 -999 -999 -999
2008-06-26 07:06:56 51°13.853 2°55.62 -999 -999 -999 -999 -999
2008-06-26 07:07:02 51°13.866 2°55.609 -999 -999 -999 -999 -999
2008-06-26 07:07:07 51°13.877 2°55.6 -999 -999 -999 -999 -999
2008-06-26 07:07:12 51°13.889 2°55.591 -999 -999 -999 -999 -999
2008-06-26 07:07:17 51°13.9 2°55.582 -999 -999 -999 -999 -999
2008-06-26 07:07:21 51°13.909 2°55.575 -999 -999 -999 -999 -999
2008-06-26 07:07:27 51°13.923 2°55.564 -999 -999 -999 -999 -999
2008-06-26 07:07:32 51°13.934 2°55.556 -999 -999 -999 -999 -999
2008-06-26 07:07:36 51°13.943 2°55.549 -999 -999 -999 -999 -999
2008-06-26 07:07:42 51°13.957 2°55.538 -999 -999 -999 -999 -999
2008-06-26 07:07:46 51°13.966 2°55.531 -999 -999 -999 -999 -999
2008-06-26 07:07:52 51°13.98 2°55.521 -999 -999 -999 -999 -999
2008-06-26 07:07:56 51°13.989 2°55.514 -999 -999 -999 -999 -999
2008-06-26 07:08:01 51°14.001 2°55.505 -999 -999 -999 -999 -999
2008-06-26 07:08:07 51°14.015 2°55.494 -999 -999 -999 -999 -999
2008-06-26 07:08:12 51°14.026 2°55.485 -999 -999 -999 -999 -999
2008-06-26 07:08:17 51°14.037 2°55.476 -999 -999 -999 -999 -999
2008-06-26 07:08:21 51°14.046 2°55.469 -999 -999 -999 -999 -999
2008-06-26 07:08:27 51°14.06 2°55.459 -999 -999 -999 -999 -999
2008-06-26 07:08:32 51°14.072 2°55.45 -999 -999 -999 -999 -999
2008-06-26 07:08:36 51°14.081 2°55.443 -999 -999 -999 -999 -999
2008-06-26 07:08:41 51°14.092 2°55.434 -999 -999 -999 -999 -999
2008-06-26 07:08:47 51°14.106 2°55.424 -999 -999 -999 -999 -999
2008-06-26 07:08:52 51°14.118 2°55.415 -999 -999 -999 -999 -999
2008-06-26 07:08:56 51°14.127 2°55.407 -999 -999 -999 -999 -999
2008-06-26 07:09:01 51°14.138 2°55.398 -999 -999 -999 -999 -999
2008-06-26 07:09:07 51°14.151 2°55.386 -999 -999 -999 -999 -999
2008-06-26 07:09:12 51°14.163 2°55.376 -999 -999 -999 -999 -999
2008-06-26 07:09:16 51°14.171 2°55.368 -999 -999 -999 -999 -999
2008-06-26 07:09:21 51°14.182 2°55.357 -999 -999 -999 -999 -999
2008-06-26 07:09:27 51°14.195 2°55.343 -999 -999 -999 -999 -999
2008-06-26 07:09:32 51°14.205 2°55.331 -999 -999 -999 -999 -999
2008-06-26 07:09:36 51°14.213 2°55.321 -999 -999 -999 -999 -999
2008-06-26 07:09:41 51°14.223 2°55.308 -999 -999 -999 -999 -999
2008-06-26 07:09:46 51°14.233 2°55.296 -999 -999 -999 -999 -999
2008-06-26 07:09:52 51°14.245 2°55.28 -999 -999 -999 -999 -999
2008-06-26 07:09:56 51°14.252 2°55.269 -999 -999 -999 -999 -999
2008-06-26 07:10:01 51°14.262 2°55.254 -999 -999 -999 -999 -999
2008-06-26 07:10:06 51°14.271 2°55.239 -999 -999 -999 -999 -999
2008-06-26 07:10:12 51°14.282 2°55.22 -999 -999 -999 -999 -999
2008-06-26 07:10:16 51°14.289 2°55.207 -999 -999 -999 -999 -999
2008-06-26 07:10:21 51°14.297 2°55.19 -999 -999 -999 -999 -999
2008-06-26 07:10:26 51°14.306 2°55.173 -999 -999 -999 -999 -999
2008-06-26 07:10:32 51°14.316 2°55.151 -999 -999 -999 -999 -999
2008-06-26 07:10:36 51°14.322 2°55.137 -999 -999 -999 -999 -999
2008-06-26 07:10:41 51°14.331 2°55.118 -999 -999 -999 -999 -999
2008-06-26 07:10:47 51°14.342 2°55.096 -999 -999 -999 -999 -999
2008-06-26 07:10:52 51°14.351 2°55.077 -999 -999 -999 -999 -999
2008-06-26 07:10:56 51°14.359 2°55.062 -999 -999 -999 -999 -999
2008-06-26 07:11:01 51°14.368 2°55.044 -999 -999 -999 -999 -999
2008-06-26 07:11:07 51°14.38 2°55.02 -999 -999 -999 -999 -999
2008-06-26 07:11:12 51°14.391 2°55.001 -999 -999 -999 -999 -999
2008-06-26 07:11:16 51°14.399 2°54.985 -999 -999 -999 -999 -999
2008-06-26 07:11:22 51°14.411 2°54.96 -999 -999 -999 -999 -999
2008-06-26 07:11:27 51°14.422 2°54.939 -999 -999 -999 -999 -999
2008-06-26 07:11:32 51°14.432 2°54.918 -999 -999 -999 -999 -999
2008-06-26 07:11:36 51°14.44 2°54.901 -999 -999 -999 -999 -999
2008-06-26 07:11:41 51°14.451 2°54.88 -999 -999 -999 -999 -999
2008-06-26 07:11:47 51°14.464 2°54.855 -999 -999 -999 -999 -999
2008-06-26 07:11:52 51°14.475 2°54.835 -999 -999 -999 -999 -999
2008-06-26 07:11:56 51°14.484 2°54.819 -999 -999 -999 -999 -999
2008-06-26 07:12:01 51°14.496 2°54.799 -999 -999 -999 -999 -999
2008-06-26 07:12:06 51°14.507 2°54.78 -999 -999 -999 -999 -999
2008-06-26 07:12:12 51°14.52 2°54.756 -999 -999 -999 -999 -999
2008-06-26 07:12:16 51°14.529 2°54.74 -999 -999 -999 -999 -999
2008-06-26 07:12:21 51°14.54 2°54.72 -999 -999 -999 -999 -999
2008-06-26 07:12:26 51°14.55 2°54.699 -999 -999 -999 -999 -999
2008-06-26 07:12:31 51°14.558 2°54.677 -999 -999 -999 -999 -999
2008-06-26 07:12:36 51°14.567 2°54.654 -999 -999 -999 -999 -999
2008-06-26 07:12:41 51°14.575 2°54.632 -999 -999 -999 -999 -999
2008-06-26 07:12:47 51°14.585 2°54.606 -999 -999 -999 -999 -999
2008-06-26 07:12:52 51°14.593 2°54.583 -999 -999 -999 -999 -999
2008-06-26 07:12:56 51°14.599 2°54.565 -999 -999 -999 -999 -999
2008-06-26 07:13:01 51°14.607 2°54.543 -999 -999 -999 -999 -999
2008-06-26 07:13:07 51°14.616 2°54.515 -999 -999 -999 -999 -999
2008-06-26 07:13:12 51°14.624 2°54.492 -999 -999 -999 -999 -999
2008-06-26 07:13:16 51°14.63 2°54.474 -999 -999 -999 -999 -999
2008-06-26 07:13:21 51°14.637 2°54.45 -999 -999 -999 -999 -999
2008-06-26 07:13:27 51°14.647 2°54.423 -999 -999 -999 -999 -999
2008-06-26 07:13:32 51°14.655 2°54.4 -999 -999 -999 -999 -999
2008-06-26 07:13:36 51°14.661 2°54.381 -999 -999 -999 -999 -999
2008-06-26 07:13:42 51°14.67 2°54.354 -999 -999 -999 -999 -999
2008-06-26 07:13:47 51°14.679 2°54.331 -999 -999 -999 -999 -999
2008-06-26 07:13:52 51°14.687 2°54.308 -999 -999 -999 -999 -999
2008-06-26 07:13:56 51°14.693 2°54.29 -999 -999 -999 -999 -999
2008-06-26 07:14:01 51°14.701 2°54.267 -999 -999 -999 -999 -999
2008-06-26 07:14:07 51°14.71 2°54.24 -999 -999 -999 -999 -999
2008-06-26 07:14:12 51°14.718 2°54.217 -999 -999 -999 -999 -999
2008-06-26 07:14:16 51°14.725 2°54.199 -999 -999 -999 -999 -999
2008-06-26 07:14:21 51°14.733 2°54.176 -999 -999 -999 -999 -999
2008-06-26 07:14:26 51°14.741 2°54.154 -999 -999 -999 -999 -999
2008-06-26 07:14:32 51°14.751 2°54.127 -999 -999 -999 -999 -999
2008-06-26 07:14:36 51°14.758 2°54.109 -999 -999 -999 -999 -999
2008-06-26 07:14:41 51°14.766 2°54.086 -999 -999 -999 -999 -999
2008-06-26 07:14:46 51°14.774 2°54.064 -999 -999 -999 -999 -999
2008-06-26 07:14:52 51°14.784 2°54.037 -999 -999 -999 -999 -999
2008-06-26 07:14:57 51°14.792 2°54.014 -999 -999 -999 -999 -999
2008-06-26 07:15:01 51°14.799 2°53.996 -999 -999 -999 -999 -999
2008-06-26 07:15:07 51°14.808 2°53.969 -999 -999 -999 -999 -999
2008-06-26 07:15:12 51°14.817 2°53.947 -999 -999 -999 -999 -999
2008-06-26 07:15:16 51°14.823 2°53.928 -999 -999 -999 -999 -999
2008-06-26 07:15:21 51°14.83 2°53.905 -999 -999 -999 -999 -999
2008-06-26 07:15:27 51°14.839 2°53.877 -999 -999 -999 -999 -999
2008-06-26 07:15:32 51°14.847 2°53.854 -999 -999 -999 -999 -999
2008-06-26 07:15:36 51°14.853 2°53.836 -999 -999 -999 -999 -999
2008-06-26 07:15:42 51°14.862 2°53.808 -999 -999 -999 -999 -999
2008-06-26 07:15:47 51°14.869 2°53.784 -999 -999 -999 -999 -999
2008-06-26 07:15:52 51°14.877 2°53.761 -999 -999 -999 -999 -999
2008-06-26 07:15:56 51°14.883 2°53.742 -999 -999 -999 -999 -999
2008-06-26 07:16:01 51°14.89 2°53.719 -999 -999 -999 -999 -999
2008-06-26 07:16:07 51°14.899 2°53.691 -999 -999 -999 -999 -999
2008-06-26 07:16:12 51°14.907 2°53.668 -999 -999 -999 -999 -999
2008-06-26 07:16:16 51°14.913 2°53.649 -999 -999 -999 -999 -999
2008-06-26 07:16:21 51°14.921 2°53.626 -999 -999 -999 -999 -999
2008-06-26 07:16:26 51°14.928 2°53.603 -999 -999 -999 -999 -999
2008-06-26 07:16:32 51°14.937 2°53.574 -999 -999 -999 -999 -999
2008-06-26 07:16:36 51°14.943 2°53.556 -999 -999 -999 -999 -999
2008-06-26 07:16:41 51°14.951 2°53.533 -999 -999 -999 -999 -999
2008-06-26 07:16:46 51°14.958 2°53.51 -999 -999 -999 -999 -999
2008-06-26 07:16:52 51°14.967 2°53.481 -999 -999 -999 -999 -999
2008-06-26 07:16:56 51°14.974 2°53.463 -999 -999 -999 -999 -999
2008-06-26 07:17:01 51°14.982 2°53.441 -999 -999 -999 -999 -999
2008-06-26 07:17:07 51°14.992 2°53.413 -999 -999 -999 -999 -999
2008-06-26 07:17:12 51°15 2°53.391 -999 -999 -999 -999 -999
2008-06-26 07:17:17 51°15.008 2°53.368 -999 -999 -999 -999 -999
2008-06-26 07:17:21 51°15.015 2°53.35 -999 -999 -999 -999 -999
2008-06-26 07:17:27 51°15.025 2°53.322 -999 -999 -999 -999 -999
2008-06-26 07:17:32 51°15.033 2°53.3 -999 -999 -999 -999 -999
2008-06-26 07:17:36 51°15.039 2°53.281 -999 -999 -999 -999 -999
2008-06-26 07:17:42 51°15.049 2°53.253 -999 -999 -999 -999 -999
2008-06-26 07:17:47 51°15.057 2°53.23 -999 -999 -999 -999 -999
2008-06-26 07:17:52 51°15.065 2°53.207 -999 -999 -999 -999 -999
2008-06-26 07:17:56 51°15.071 2°53.188 -999 -999 -999 -999 -999
2008-06-26 07:18:02 51°15.08 2°53.16 -999 -999 -999 -999 -999
2008-06-26 07:18:07 51°15.088 2°53.136 -999 -999 -999 -999 -999
2008-06-26 07:18:12 51°15.095 2°53.113 -999 -999 -999 -999 -999
2008-06-26 07:18:16 51°15.101 2°53.094 -999 -999 -999 -999 -999
2008-06-26 07:18:21 51°15.109 2°53.07 -999 -999 -999 -999 -999
2008-06-26 07:18:27 51°15.118 2°53.042 -999 -999 -999 -999 -999
2008-06-26 07:18:32 51°15.125 2°53.019 -999 -999 -999 -999 -999
2008-06-26 07:18:36 51°15.131 2°53 -999 -999 -999 -999 -999
2008-06-26 07:18:41 51°15.138 2°52.976 -999 -999 -999 -999 -999
2008-06-26 07:18:47 51°15.147 2°52.947 -999 -999 -999 -999 -999
2008-06-26 07:18:52 51°15.154 2°52.924 -999 -999 -999 -999 -999
2008-06-26 07:18:56 51°15.159 2°52.905 -999 -999 -999 -999 -999
2008-06-26 07:19:01 51°15.166 2°52.881 -999 -999 -999 -999 -999
2008-06-26 07:19:06 51°15.173 2°52.857 -999 -999 -999 -999 -999
2008-06-26 07:19:12 51°15.182 2°52.829 -999 -999 -999 -999 -999
2008-06-26 07:19:16 51°15.187 2°52.81 -999 -999 -999 -999 -999
2008-06-26 07:19:21 51°15.194 2°52.786 -999 -999 -999 -999 -999
2008-06-26 07:19:26 51°15.201 2°52.762 -999 -999 -999 -999 -999
2008-06-26 07:19:31 51°15.208 2°52.739 -999 -999 -999 -999 -999
2008-06-26 07:19:36 51°15.215 2°52.715 -999 -999 -999 -999 -999
2008-06-26 07:19:41 51°15.222 2°52.691 -999 -999 -999 -999 -999
2008-06-26 07:19:46 51°15.229 2°52.668 -999 -999 -999 -999 -999
2008-06-26 07:19:51 51°15.237 2°52.644 -999 -999 -999 -999 -999
2008-06-26 07:19:56 51°15.244 2°52.62 -999 -999 -999 -999 -999
2008-06-26 07:20:01 51°15.251 2°52.597 -999 -999 -999 -999 -999
2008-06-26 07:20:06 51°15.258 2°52.573 -999 -999 -999 -999 -999
2008-06-26 07:20:11 51°15.265 2°52.549 -999 -999 -999 -999 -999
2008-06-26 07:20:16 51°15.272 2°52.526 -999 -999 -999 -999 -999
2008-06-26 07:20:21 51°15.279 2°52.502 -999 -999 -999 -999 -999
2008-06-26 07:20:26 51°15.284 2°52.477 -999 -999 -999 -999 -999
2008-06-26 07:20:31 51°15.29 2°52.453 -999 -999 -999 -999 -999
2008-06-26 07:20:36 51°15.294 2°52.428 -999 -999 -999 -999 -999
2008-06-26 07:20:41 51°15.299 2°52.403 -999 -999 -999 -999 -999
2008-06-26 07:20:46 51°15.303 2°52.378 -999 -999 -999 -999 -999
2008-06-26 07:20:51 51°15.308 2°52.353 -999 -999 -999 -999 -999
2008-06-26 07:20:56 51°15.312 2°52.327 -999 -999 -999 -999 -999
2008-06-26 07:21:01 51°15.315 2°52.302 -999 -999 -999 -999 -999
2008-06-26 07:21:07 51°15.32 2°52.272 -999 -999 -999 -999 -999
2008-06-26 07:21:11 51°15.324 2°52.251 -999 -999 -999 -999 -999
2008-06-26 07:21:16 51°15.327 2°52.226 -999 -999 -999 -999 -999
2008-06-26 07:21:21 51°15.331 2°52.2 -999 -999 -999 -999 -999
2008-06-26 07:21:26 51°15.335 2°52.174 -999 -999 -999 -999 -999
2008-06-26 07:21:31 51°15.339 2°52.149 -999 -999 -999 -999 -999
2008-06-26 07:21:36 51°15.343 2°52.124 -999 -999 -999 -999 -999
2008-06-26 07:21:41 51°15.347 2°52.098 -999 -999 -999 -999 -999
2008-06-26 07:21:46 51°15.351 2°52.073 -999 -999 -999 -999 -999
2008-06-26 07:21:51 51°15.355 2°52.048 -999 -999 -999 -999 -999
2008-06-26 07:21:56 51°15.36 2°52.023 -999 -999 -999 -999 -999
2008-06-26 07:22:01 51°15.364 2°51.998 -999 -999 -999 -999 -999
2008-06-26 07:22:06 51°15.369 2°51.973 -999 -999 -999 -999 -999
2008-06-26 07:22:11 51°15.374 2°51.948 -999 -999 -999 -999 -999
2008-06-26 07:22:16 51°15.378 2°51.924 -999 -999 -999 -999 -999
2008-06-26 07:22:21 51°15.383 2°51.899 -999 -999 -999 -999 -999
2008-06-26 07:22:26 51°15.388 2°51.874 -999 -999 -999 -999 -999
2008-06-26 07:22:31 51°15.392 2°51.849 -999 -999 -999 -999 -999
2008-06-26 07:22:36 51°15.397 2°51.824 -999 -999 -999 -999 -999
2008-06-26 07:22:41 51°15.401 2°51.799 -999 -999 -999 -999 -999
2008-06-26 07:22:47 51°15.406 2°51.769 -999 -999 -999 -999 -999
2008-06-26 07:22:51 51°15.41 2°51.749 -999 -999 -999 -999 -999
2008-06-26 07:22:56 51°15.412 2°51.723 -999 -999 -999 -999 -999
2008-06-26 07:23:01 51°15.415 2°51.698 -999 -999 -999 -999 -999
2008-06-26 07:23:06 51°15.417 2°51.672 -999 -999 -999 -999 -999
2008-06-26 07:23:11 51°15.419 2°51.647 -999 -999 -999 -999 -999
2008-06-26 07:23:16 51°15.421 2°51.621 -999 -999 -999 -999 -999
2008-06-26 07:23:21 51°15.422 2°51.595 -999 -999 -999 -999 -999
2008-06-26 07:23:26 51°15.423 2°51.569 -999 -999 -999 -999 -999
2008-06-26 07:23:31 51°15.425 2°51.543 -999 -999 -999 -999 -999
2008-06-26 07:23:36 51°15.426 2°51.518 -999 -999 -999 -999 -999
2008-06-26 07:23:41 51°15.427 2°51.492 -999 -999 -999 -999 -999
2008-06-26 07:23:46 51°15.428 2°51.466 -999 -999 -999 -999 -999
2008-06-26 07:23:51 51°15.429 2°51.44 -999 -999 -999 -999 -999
2008-06-26 07:23:56 51°15.431 2°51.414 -999 -999 -999 -999 -999
2008-06-26 07:24:01 51°15.432 2°51.388 -999 -999 -999 -999 -999
2008-06-26 07:24:06 51°15.433 2°51.363 -999 -999 -999 -999 -999
2008-06-26 07:24:11 51°15.435 2°51.337 -999 -999 -999 -999 -999
2008-06-26 07:24:16 51°15.436 2°51.311 -999 -999 -999 -999 -999
2008-06-26 07:24:21 51°15.438 2°51.285 -999 -999 -999 -999 -999
2008-06-26 07:24:26 51°15.439 2°51.259 -999 -999 -999 -999 -999
2008-06-26 07:24:31 51°15.441 2°51.233 -999 -999 -999 -999 -999
2008-06-26 07:24:36 51°15.442 2°51.207 -999 -999 -999 -999 -999
2008-06-26 07:24:41 51°15.443 2°51.182 -999 -999 -999 -999 -999
2008-06-26 07:24:46 51°15.443 2°51.156 -999 -999 -999 -999 -999
2008-06-26 07:24:51 51°15.443 2°51.13 -999 -999 -999 -999 -999
2008-06-26 07:24:56 51°15.442 2°51.105 -999 -999 -999 -999 -999
2008-06-26 07:25:01 51°15.441 2°51.079 -999 -999 -999 -999 -999
2008-06-26 07:25:06 51°15.439 2°51.053 -999 -999 -999 -999 -999
2008-06-26 07:25:11 51°15.438 2°51.028 -999 -999 -999 -999 -999
2008-06-26 07:25:16 51°15.436 2°51.002 -999 -999 -999 -999 -999
2008-06-26 07:25:21 51°15.434 2°50.977 -999 -999 -999 -999 -999
2008-06-26 07:25:26 51°15.433 2°50.951 -999 -999 -999 -999 -999
2008-06-26 07:25:31 51°15.431 2°50.925 -999 -999 -999 -999 -999
2008-06-26 07:25:36 51°15.43 2°50.9 -999 -999 -999 -999 -999
2008-06-26 07:25:41 51°15.429 2°50.874 -999 -999 -999 -999 -999
2008-06-26 07:25:47 51°15.428 2°50.843 -999 -999 -999 -999 -999
2008-06-26 07:25:51 51°15.427 2°50.822 -999 -999 -999 -999 -999
2008-06-26 07:25:56 51°15.427 2°50.796 -999 -999 -999 -999 -999
2008-06-26 07:26:01 51°15.426 2°50.771 -999 -999 -999 -999 -999
2008-06-26 07:26:06 51°15.426 2°50.745 -999 -999 -999 -999 -999
2008-06-26 07:26:11 51°15.425 2°50.719 -999 -999 -999 -999 -999
2008-06-26 07:26:16 51°15.424 2°50.693 -999 -999 -999 -999 -999
2008-06-26 07:26:21 51°15.424 2°50.667 -999 -999 -999 -999 -999
2008-06-26 07:26:26 51°15.423 2°50.642 -999 -999 -999 -999 -999
2008-06-26 07:26:31 51°15.423 2°50.616 -999 -999 -999 -999 -999
2008-06-26 07:26:36 51°15.423 2°50.59 -999 -999 -999 -999 -999
2008-06-26 07:26:41 51°15.423 2°50.564 -999 -999 -999 -999 -999
2008-06-26 07:26:46 51°15.423 2°50.538 -999 -999 -999 -999 -999
2008-06-26 07:26:51 51°15.423 2°50.512 -999 -999 -999 -999 -999
2008-06-26 07:26:56 51°15.422 2°50.487 -999 -999 -999 -999 -999
2008-06-26 07:27:01 51°15.422 2°50.461 -999 -999 -999 -999 -999
2008-06-26 07:27:06 51°15.422 2°50.435 -999 -999 -999 -999 -999
2008-06-26 07:27:11 51°15.422 2°50.409 -999 -999 -999 -999 -999
2008-06-26 07:27:16 51°15.422 2°50.383 -999 -999 -999 -999 -999
2008-06-26 07:27:21 51°15.421 2°50.357 -999 -999 -999 -999 -999
2008-06-26 07:27:26 51°15.421 2°50.332 -999 -999 -999 -999 -999
2008-06-26 07:27:31 51°15.421 2°50.306 -999 -999 -999 -999 -999
2008-06-26 07:27:36 51°15.421 2°50.28 -999 -999 -999 -999 -999
2008-06-26 07:27:41 51°15.421 2°50.254 -999 -999 -999 -999 -999
2008-06-26 07:27:46 51°15.421 2°50.229 -999 -999 -999 -999 -999
2008-06-26 07:27:51 51°15.42 2°50.202 -999 -999 -999 -999 -999
2008-06-26 07:27:56 51°15.421 2°50.177 -999 -999 -999 -999 -999
2008-06-26 07:28:01 51°15.42 2°50.151 -999 -999 -999 -999 -999
2008-06-26 07:28:06 51°15.42 2°50.125 -999 -999 -999 -999 -999
2008-06-26 07:28:11 51°15.42 2°50.099 -999 -999 -999 -999 -999
2008-06-26 07:28:16 51°15.42 2°50.073 -999 -999 -999 -999 -999
2008-06-26 07:28:21 51°15.42 2°50.047 -999 -999 -999 -999 -999
2008-06-26 07:28:26 51°15.42 2°50.021 -999 -999 -999 -999 -999
2008-06-26 07:28:31 51°15.42 2°49.996 -999 -999 -999 -999 -999
2008-06-26 07:28:36 51°15.42 2°49.97 -999 -999 -999 -999 -999
2008-06-26 07:28:41 51°15.42 2°49.944 -999 -999 -999 -999 -999
2008-06-26 07:28:46 51°15.42 2°49.919 -999 -999 -999 -999 -999
2008-06-26 07:28:51 51°15.42 2°49.893 -999 -999 -999 -999 -999
2008-06-26 07:28:56 51°15.421 2°49.868 -999 -999 -999 -999 -999
2008-06-26 07:29:01 51°15.422 2°49.842 -999 -999 -999 -999 -999
2008-06-26 07:29:06 51°15.423 2°49.817 -999 -999 -999 -999 -999
2008-06-26 07:29:11 51°15.423 2°49.791 -999 -999 -999 -999 -999
2008-06-26 07:29:16 51°15.425 2°49.766 -999 -999 -999 -999 -999
2008-06-26 07:29:21 51°15.426 2°49.74 -999 -999 -999 -999 -999
2008-06-26 07:29:26 51°15.426 2°49.714 -999 -999 -999 -999 -999
2008-06-26 07:29:31 51°15.427 2°49.689 -999 -999 -999 -999 -999
2008-06-26 07:29:36 51°15.427 2°49.663 -999 -999 -999 -999 -999
2008-06-26 07:29:41 51°15.427 2°49.637 -999 -999 -999 -999 -999
2008-06-26 07:29:46 51°15.427 2°49.612 -999 -999 -999 -999 -999
2008-06-26 07:29:51 51°15.427 2°49.586 -999 -999 -999 -999 -999
2008-06-26 07:29:56 51°15.427 2°49.56 -999 -999 -999 -999 -999
2008-06-26 07:30:01 51°15.427 2°49.535 -999 -999 -999 -999 -999
2008-06-26 07:30:06 51°15.427 2°49.509 -999 -999 -999 -999 -999
2008-06-26 07:30:11 51°15.427 2°49.483 -999 -999 -999 -999 -999
2008-06-26 07:30:16 51°15.427 2°49.458 -999 -999 -999 -999 -999
2008-06-26 07:30:21 51°15.426 2°49.432 -999 -999 -999 -999 -999
2008-06-26 07:30:26 51°15.426 2°49.406 -999 -999 -999 -999 -999
2008-06-26 07:30:31 51°15.426 2°49.38 -999 -999 -999 -999 -999
2008-06-26 07:30:36 51°15.426 2°49.355 -999 -999 -999 -999 -999
2008-06-26 07:30:41 51°15.425 2°49.329 -999 -999 -999 -999 -999
2008-06-26 07:30:46 51°15.425 2°49.303 -999 -999 -999 -999 -999
2008-06-26 07:30:51 51°15.425 2°49.277 -999 -999 -999 -999 -999
2008-06-26 07:30:56 51°15.425 2°49.251 -999 -999 -999 -999 -999
2008-06-26 07:31:01 51°15.424 2°49.225 -999 -999 -999 -999 -999
2008-06-26 07:31:06 51°15.424 2°49.2 -999 -999 -999 -999 -999
2008-06-26 07:31:11 51°15.424 2°49.174 -999 -999 -999 -999 -999
2008-06-26 07:31:16 51°15.424 2°49.148 -999 -999 -999 -999 -999
2008-06-26 07:31:21 51°15.424 2°49.122 -999 -999 -999 -999 -999
2008-06-26 07:31:26 51°15.424 2°49.096 -999 -999 -999 -999 -999
2008-06-26 07:31:31 51°15.424 2°49.07 -999 -999 -999 -999 -999
2008-06-26 07:31:36 51°15.424 2°49.044 -999 -999 -999 -999 -999
2008-06-26 07:31:41 51°15.424 2°49.018 -999 -999 -999 -999 -999
2008-06-26 07:31:46 51°15.425 2°48.992 -999 -999 -999 -999 -999
2008-06-26 07:31:51 51°15.425 2°48.966 -999 -999 -999 -999 -999
2008-06-26 07:31:56 51°15.426 2°48.94 -999 -999 -999 -999 -999
2008-06-26 07:32:01 51°15.427 2°48.914 -999 -999 -999 -999 -999
2008-06-26 07:32:06 51°15.428 2°48.888 -999 -999 -999 -999 -999
2008-06-26 07:32:11 51°15.429 2°48.862 -999 -999 -999 -999 -999
2008-06-26 07:32:16 51°15.429 2°48.837 -999 -999 -999 -999 -999
2008-06-26 07:32:21 51°15.429 2°48.811 -999 -999 -999 -999 -999
2008-06-26 07:32:26 51°15.43 2°48.785 -999 -999 -999 -999 -999
2008-06-26 07:32:31 51°15.43 2°48.759 -999 -999 -999 -999 -999
2008-06-26 07:32:36 51°15.43 2°48.733 -999 -999 -999 -999 -999
2008-06-26 07:32:41 51°15.43 2°48.708 -999 -999 -999 -999 -999
2008-06-26 07:32:46 51°15.429 2°48.682 -999 -999 -999 -999 -999
2008-06-26 07:32:51 51°15.429 2°48.656 -999 -999 -999 -999 -999
2008-06-26 07:32:56 51°15.429 2°48.631 -999 -999 -999 -999 -999
2008-06-26 07:33:01 51°15.429 2°48.605 -999 -999 -999 -999 -999
2008-06-26 07:33:06 51°15.429 2°48.579 -999 -999 -999 -999 -999
2008-06-26 07:33:11 51°15.429 2°48.554 -999 -999 -999 -999 -999
2008-06-26 07:33:16 51°15.428 2°48.528 -999 -999 -999 -999 -999
2008-06-26 07:33:21 51°15.428 2°48.503 -999 -999 -999 -999 -999
2008-06-26 07:33:26 51°15.428 2°48.477 -999 -999 -999 -999 -999
2008-06-26 07:33:31 51°15.428 2°48.451 -999 -999 -999 -999 -999
2008-06-26 07:33:36 51°15.429 2°48.426 -999 -999 -999 -999 -999
2008-06-26 07:33:41 51°15.429 2°48.4 -999 -999 -999 -999 -999
2008-06-26 07:33:46 51°15.43 2°48.374 -999 -999 -999 -999 -999
2008-06-26 07:33:51 51°15.43 2°48.349 -999 -999 -999 -999 -999
2008-06-26 07:33:56 51°15.431 2°48.323 -999 -999 -999 -999 -999
2008-06-26 07:34:01 51°15.432 2°48.297 -999 -999 -999 -999 -999
2008-06-26 07:34:06 51°15.432 2°48.271 -999 -999 -999 -999 -999
2008-06-26 07:34:11 51°15.433 2°48.246 -999 -999 -999 -999 -999
2008-06-26 07:34:16 51°15.433 2°48.22 -999 -999 -999 -999 -999
2008-06-26 07:34:21 51°15.433 2°48.194 -999 -999 -999 -999 -999
2008-06-26 07:34:26 51°15.433 2°48.168 -999 -999 -999 -999 -999
2008-06-26 07:34:31 51°15.432 2°48.143 -999 -999 -999 -999 -999
2008-06-26 07:34:36 51°15.431 2°48.117 -999 -999 -999 -999 -999
2008-06-26 07:34:41 51°15.43 2°48.092 -999 -999 -999 -999 -999
2008-06-26 07:34:46 51°15.429 2°48.066 -999 -999 -999 -999 -999
2008-06-26 07:34:51 51°15.429 2°48.04 -999 -999 -999 -999 -999
2008-06-26 07:34:56 51°15.428 2°48.015 -999 -999 -999 -999 -999
2008-06-26 07:35:01 51°15.427 2°47.989 -999 -999 -999 -999 -999
2008-06-26 07:35:06 51°15.425 2°47.963 -999 -999 -999 -999 -999
2008-06-26 07:35:11 51°15.424 2°47.937 -999 -999 -999 -999 -999
2008-06-26 07:35:16 51°15.423 2°47.912 -999 -999 -999 -999 -999
2008-06-26 07:35:21 51°15.422 2°47.886 -999 -999 -999 -999 -999
2008-06-26 07:35:26 51°15.422 2°47.86 -999 -999 -999 -999 -999
2008-06-26 07:35:31 51°15.421 2°47.834 -999 -999 -999 -999 -999
2008-06-26 07:35:36 51°15.421 2°47.808 -999 -999 -999 -999 -999
2008-06-26 07:35:41 51°15.42 2°47.782 -999 -999 -999 -999 -999
2008-06-26 07:35:46 51°15.421 2°47.756 -999 -999 -999 -999 -999
2008-06-26 07:35:51 51°15.421 2°47.73 -999 -999 -999 -999 -999
2008-06-26 07:35:56 51°15.421 2°47.704 -999 -999 -999 -999 -999
2008-06-26 07:36:01 51°15.422 2°47.678 -999 -999 -999 -999 -999
2008-06-26 07:36:06 51°15.423 2°47.652 -999 -999 -999 -999 -999
2008-06-26 07:36:11 51°15.423 2°47.626 -999 -999 -999 -999 -999
2008-06-26 07:36:16 51°15.424 2°47.6 -999 -999 -999 -999 -999
2008-06-26 07:36:21 51°15.425 2°47.574 -999 -999 -999 -999 -999
2008-06-26 07:36:26 51°15.426 2°47.548 -999 -999 -999 -999 -999
2008-06-26 07:36:31 51°15.426 2°47.522 -999 -999 -999 -999 -999
2008-06-26 07:36:36 51°15.427 2°47.496 -999 -999 -999 -999 -999
2008-06-26 07:36:41 51°15.427 2°47.469 -999 -999 -999 -999 -999
2008-06-26 07:36:46 51°15.428 2°47.443 -999 -999 -999 -999 -999
2008-06-26 07:36:51 51°15.428 2°47.417 -999 -999 -999 -999 -999
2008-06-26 07:36:56 51°15.428 2°47.391 -999 -999 -999 -999 -999
2008-06-26 07:37:01 51°15.428 2°47.365 -999 -999 -999 -999 -999
2008-06-26 07:37:06 51°15.428 2°47.339 -999 -999 -999 -999 -999
2008-06-26 07:37:11 51°15.427 2°47.313 -999 -999 -999 -999 -999
2008-06-26 07:37:16 51°15.426 2°47.287 -999 -999 -999 -999 -999
2008-06-26 07:37:21 51°15.425 2°47.261 -999 -999 -999 -999 -999
2008-06-26 07:37:26 51°15.423 2°47.235 -999 -999 -999 -999 -999
2008-06-26 07:37:31 51°15.422 2°47.209 -999 -999 -999 -999 -999
2008-06-26 07:37:36 51°15.421 2°47.183 -999 -999 -999 -999 -999
2008-06-26 07:37:41 51°15.42 2°47.157 -999 -999 -999 -999 -999
2008-06-26 07:37:46 51°15.419 2°47.131 -999 -999 -999 -999 -999
2008-06-26 07:37:51 51°15.418 2°47.105 -999 -999 -999 -999 -999
2008-06-26 07:37:56 51°15.417 2°47.079 -999 -999 -999 -999 -999
2008-06-26 07:38:01 51°15.416 2°47.053 -999 -999 -999 -999 -999
2008-06-26 07:38:06 51°15.415 2°47.027 -999 -999 -999 -999 -999
2008-06-26 07:38:11 51°15.414 2°47.001 -999 -999 -999 -999 -999
2008-06-26 07:38:16 51°15.413 2°46.975 -999 -999 -999 -999 -999
2008-06-26 07:38:21 51°15.411 2°46.949 -999 -999 -999 -999 -999
2008-06-26 07:38:26 51°15.411 2°46.923 -999 -999 -999 -999 -999
2008-06-26 07:38:31 51°15.409 2°46.897 -999 -999 -999 -999 -999
2008-06-26 07:38:36 51°15.408 2°46.87 -999 -999 -999 -999 -999
2008-06-26 07:38:41 51°15.407 2°46.844 -999 -999 -999 -999 -999
2008-06-26 07:38:46 51°15.406 2°46.818 -999 -999 -999 -999 -999
2008-06-26 07:38:51 51°15.406 2°46.792 -999 -999 -999 -999 -999
2008-06-26 07:38:56 51°15.405 2°46.766 -999 -999 -999 -999 -999
2008-06-26 07:39:01 51°15.404 2°46.74 -999 -999 -999 -999 -999
2008-06-26 07:39:06 51°15.403 2°46.714 -999 -999 -999 -999 -999
2008-06-26 07:39:11 51°15.403 2°46.688 -999 -999 -999 -999 -999
2008-06-26 07:39:16 51°15.402 2°46.662 -999 -999 -999 -999 -999
2008-06-26 07:39:21 51°15.403 2°46.636 -999 -999 -999 -999 -999
2008-06-26 07:39:26 51°15.402 2°46.61 -999 -999 -999 -999 -999
2008-06-26 07:39:31 51°15.402 2°46.584 -999 -999 -999 -999 -999
2008-06-26 07:39:36 51°15.402 2°46.557 -999 -999 -999 -999 -999
2008-06-26 07:39:41 51°15.402 2°46.532 -999 -999 -999 -999 -999
2008-06-26 07:39:46 51°15.402 2°46.506 -999 -999 -999 -999 -999
2008-06-26 07:39:51 51°15.402 2°46.479 -999 -999 -999 -999 -999
2008-06-26 07:39:56 51°15.402 2°46.453 -999 -999 -999 -999 -999
2008-06-26 07:40:01 51°15.402 2°46.427 -999 -999 -999 -999 -999
2008-06-26 07:40:06 51°15.402 2°46.401 -999 -999 -999 -999 -999
2008-06-26 07:40:11 51°15.402 2°46.375 -999 -999 -999 -999 -999
2008-06-26 07:40:16 51°15.401 2°46.349 -999 -999 -999 -999 -999
2008-06-26 07:40:21 51°15.402 2°46.323 -999 -999 -999 -999 -999
2008-06-26 07:40:26 51°15.401 2°46.297 -999 -999 -999 -999 -999
2008-06-26 07:40:31 51°15.4 2°46.271 -999 -999 -999 -999 -999
2008-06-26 07:40:36 51°15.4 2°46.245 -999 -999 -999 -999 -999
2008-06-26 07:40:41 51°15.399 2°46.219 -999 -999 -999 -999 -999
2008-06-26 07:40:46 51°15.399 2°46.193 -999 -999 -999 -999 -999
2008-06-26 07:40:51 51°15.398 2°46.167 -999 -999 -999 -999 -999
2008-06-26 07:40:56 51°15.397 2°46.141 -999 -999 -999 -999 -999
2008-06-26 07:41:01 51°15.396 2°46.115 -999 -999 -999 -999 -999
2008-06-26 07:41:06 51°15.395 2°46.089 -999 -999 -999 -999 -999
2008-06-26 07:41:11 51°15.394 2°46.064 -999 -999 -999 -999 -999
2008-06-26 07:41:16 51°15.393 2°46.038 -999 -999 -999 -999 -999
2008-06-26 07:41:21 51°15.392 2°46.012 -999 -999 -999 -999 -999
2008-06-26 07:41:26 51°15.391 2°45.986 -999 -999 -999 -999 -999
2008-06-26 07:41:31 51°15.39 2°45.96 -999 -999 -999 -999 -999
2008-06-26 07:41:36 51°15.389 2°45.935 -999 -999 -999 -999 -999
2008-06-26 07:41:41 51°15.388 2°45.909 -999 -999 -999 -999 -999
2008-06-26 07:41:46 51°15.387 2°45.883 -999 -999 -999 -999 -999
2008-06-26 07:41:51 51°15.386 2°45.857 -999 -999 -999 -999 -999
2008-06-26 07:41:56 51°15.386 2°45.831 -999 -999 -999 -999 -999
2008-06-26 07:42:01 51°15.385 2°45.806 -999 -999 -999 -999 -999
2008-06-26 07:42:06 51°15.384 2°45.78 -999 -999 -999 -999 -999
2008-06-26 07:42:11 51°15.383 2°45.754 -999 -999 -999 -999 -999
2008-06-26 07:42:16 51°15.382 2°45.728 -999 -999 -999 -999 -999
2008-06-26 07:42:21 51°15.381 2°45.703 -999 -999 -999 -999 -999
2008-06-26 07:42:26 51°15.38 2°45.677 -999 -999 -999 -999 -999
2008-06-26 07:42:31 51°15.379 2°45.651 -999 -999 -999 -999 -999
2008-06-26 07:42:36 51°15.379 2°45.626 -999 -999 -999 -999 -999
2008-06-26 07:42:41 51°15.378 2°45.6 -999 -999 -999 -999 -999
2008-06-26 07:42:46 51°15.377 2°45.574 -999 -999 -999 -999 -999
2008-06-26 07:42:51 51°15.376 2°45.549 -999 -999 -999 -999 -999
2008-06-26 07:42:56 51°15.376 2°45.523 -999 -999 -999 -999 -999
2008-06-26 07:43:01 51°15.375 2°45.498 -999 -999 -999 -999 -999
2008-06-26 07:43:06 51°15.374 2°45.472 -999 -999 -999 -999 -999
2008-06-26 07:43:11 51°15.373 2°45.447 -999 -999 -999 -999 -999
2008-06-26 07:43:16 51°15.372 2°45.421 -999 -999 -999 -999 -999
2008-06-26 07:43:21 51°15.371 2°45.396 -999 -999 -999 -999 -999
2008-06-26 07:43:26 51°15.371 2°45.37 -999 -999 -999 -999 -999
2008-06-26 07:43:31 51°15.37 2°45.344 -999 -999 -999 -999 -999
2008-06-26 07:43:36 51°15.369 2°45.318 -999 -999 -999 -999 -999
2008-06-26 07:43:41 51°15.369 2°45.293 -999 -999 -999 -999 -999
2008-06-26 07:43:46 51°15.368 2°45.267 -999 -999 -999 -999 -999
2008-06-26 07:43:51 51°15.367 2°45.242 -999 -999 -999 -999 -999
2008-06-26 07:43:56 51°15.367 2°45.216 -999 -999 -999 -999 -999
2008-06-26 07:44:01 51°15.366 2°45.19 -999 -999 -999 -999 -999
2008-06-26 07:44:06 51°15.366 2°45.165 -999 -999 -999 -999 -999
2008-06-26 07:44:11 51°15.366 2°45.139 -999 -999 -999 -999 -999
2008-06-26 07:44:16 51°15.366 2°45.113 -999 -999 -999 -999 -999
2008-06-26 07:44:21 51°15.366 2°45.087 -999 -999 -999 -999 -999
2008-06-26 07:44:26 51°15.366 2°45.061 -999 -999 -999 -999 -999
2008-06-26 07:44:32 51°15.366 2°45.03 -999 -999 -999 -999 -999
2008-06-26 07:44:36 51°15.366 2°45.01 -999 -999 -999 -999 -999
2008-06-26 07:44:41 51°15.366 2°44.984 -999 -999 -999 -999 -999
2008-06-26 07:44:46 51°15.366 2°44.958 -999 -999 -999 -999 -999
2008-06-26 07:44:51 51°15.366 2°44.932 -999 -999 -999 -999 -999
2008-06-26 07:44:56 51°15.367 2°44.906 -999 -999 -999 -999 -999
2008-06-26 07:45:01 51°15.367 2°44.88 -999 -999 -999 -999 -999
2008-06-26 07:45:06 51°15.366 2°44.855 -999 -999 -999 -999 -999
2008-06-26 07:45:11 51°15.366 2°44.829 -999 -999 -999 -999 -999
2008-06-26 07:45:16 51°15.365 2°44.803 -999 -999 -999 -999 -999
2008-06-26 07:45:21 51°15.364 2°44.777 -999 -999 -999 -999 -999
2008-06-26 07:45:26 51°15.363 2°44.751 -999 -999 -999 -999 -999
2008-06-26 07:45:31 51°15.363 2°44.726 -999 -999 -999 -999 -999
2008-06-26 07:45:36 51°15.362 2°44.7 -999 -999 -999 -999 -999
2008-06-26 07:45:41 51°15.361 2°44.674 -999 -999 -999 -999 -999
2008-06-26 07:45:46 51°15.361 2°44.648 -999 -999 -999 -999 -999
2008-06-26 07:45:51 51°15.36 2°44.623 -999 -999 -999 -999 -999
2008-06-26 07:45:56 51°15.359 2°44.597 -999 -999 -999 -999 -999
2008-06-26 07:46:01 51°15.359 2°44.571 -999 -999 -999 -999 -999
2008-06-26 07:46:06 51°15.358 2°44.545 -999 -999 -999 -999 -999
2008-06-26 07:46:11 51°15.357 2°44.519 -999 -999 -999 -999 -999
2008-06-26 07:46:16 51°15.357 2°44.493 -999 -999 -999 -999 -999
2008-06-26 07:46:21 51°15.356 2°44.468 -999 -999 -999 -999 -999
2008-06-26 07:46:26 51°15.355 2°44.442 -999 -999 -999 -999 -999
2008-06-26 07:46:32 51°15.354 2°44.411 -999 -999 -999 -999 -999
2008-06-26 07:46:36 51°15.353 2°44.391 -999 -999 -999 -999 -999
2008-06-26 07:46:41 51°15.353 2°44.365 -999 -999 -999 -999 -999
2008-06-26 07:46:46 51°15.352 2°44.339 -999 -999 -999 -999 -999
2008-06-26 07:46:51 51°15.352 2°44.313 -999 -999 -999 -999 -999
2008-06-26 07:46:56 51°15.351 2°44.288 -999 -999 -999 -999 -999
2008-06-26 07:47:01 51°15.35 2°44.262 -999 -999 -999 -999 -999
2008-06-26 07:47:06 51°15.349 2°44.237 -999 -999 -999 -999 -999
2008-06-26 07:47:11 51°15.349 2°44.211 -999 -999 -999 -999 -999
2008-06-26 07:47:16 51°15.348 2°44.186 -999 -999 -999 -999 -999
2008-06-26 07:47:21 51°15.348 2°44.16 -999 -999 -999 -999 -999
2008-06-26 07:47:26 51°15.347 2°44.135 -999 -999 -999 -999 -999
2008-06-26 07:47:31 51°15.346 2°44.109 -999 -999 -999 -999 -999
2008-06-26 07:47:36 51°15.345 2°44.083 -999 -999 -999 -999 -999
2008-06-26 07:47:41 51°15.345 2°44.058 -999 -999 -999 -999 -999
2008-06-26 07:47:47 51°15.345 2°44.027 -999 -999 -999 -999 -999
2008-06-26 07:47:51 51°15.345 2°44.007 -999 -999 -999 -999 -999
2008-06-26 07:47:57 51°15.345 2°43.976 -999 -999 -999 -999 -999
2008-06-26 07:48:01 51°15.346 2°43.955 -999 -999 -999 -999 -999
2008-06-26 07:48:07 51°15.347 2°43.924 -999 -999 -999 -999 -999
2008-06-26 07:48:11 51°15.347 2°43.904 -999 -999 -999 -999 -999
2008-06-26 07:48:16 51°15.347 2°43.878 -999 -999 -999 -999 -999
2008-06-26 07:48:21 51°15.347 2°43.853 -999 -999 -999 -999 -999
2008-06-26 07:48:27 51°15.347 2°43.822 -999 -999 -999 -999 -999
2008-06-26 07:48:31 51°15.347 2°43.801 -999 -999 -999 -999 -999
2008-06-26 07:48:36 51°15.348 2°43.775 -999 -999 -999 -999 -999
2008-06-26 07:48:41 51°15.348 2°43.749 -999 -999 -999 -999 -999
2008-06-26 07:48:47 51°15.348 2°43.719 -999 -999 -999 -999 -999
2008-06-26 07:48:51 51°15.347 2°43.698 -999 -999 -999 -999 -999
2008-06-26 07:48:56 51°15.347 2°43.673 -999 -999 -999 -999 -999
2008-06-26 07:49:01 51°15.346 2°43.647 -999 -999 -999 -999 -999
2008-06-26 07:49:07 51°15.345 2°43.616 -999 -999 -999 -999 -999
2008-06-26 07:49:11 51°15.344 2°43.596 -999 -999 -999 -999 -999
2008-06-26 07:49:17 51°15.344 2°43.565 -999 -999 -999 -999 -999
2008-06-26 07:49:21 51°15.343 2°43.544 -999 -999 -999 -999 -999
2008-06-26 07:49:27 51°15.342 2°43.513 -999 -999 -999 -999 -999
2008-06-26 07:49:31 51°15.341 2°43.492 -999 -999 -999 -999 -999
2008-06-26 07:49:37 51°15.34 2°43.461 -999 -999 -999 -999 -999
2008-06-26 07:49:41 51°15.339 2°43.44 -999 -999 -999 -999 -999
2008-06-26 07:49:47 51°15.338 2°43.409 -999 -999 -999 -999 -999
2008-06-26 07:49:51 51°15.337 2°43.388 -999 -999 -999 -999 -999
2008-06-26 07:49:57 51°15.337 2°43.357 -999 -999 -999 -999 -999
2008-06-26 07:50:01 51°15.336 2°43.336 -999 -999 -999 -999 -999
2008-06-26 07:50:07 51°15.336 2°43.305 -999 -999 -999 -999 -999
2008-06-26 07:50:11 51°15.335 2°43.284 -999 -999 -999 -999 -999
2008-06-26 07:50:16 51°15.335 2°43.258 -999 -999 -999 -999 -999
2008-06-26 07:50:21 51°15.334 2°43.232 -999 -999 -999 -999 -999
2008-06-26 07:50:27 51°15.335 2°43.201 -999 -999 -999 -999 -999
2008-06-26 07:50:31 51°15.334 2°43.18 -999 -999 -999 -999 -999
2008-06-26 07:50:36 51°15.335 2°43.154 -999 -999 -999 -999 -999
2008-06-26 07:50:41 51°15.334 2°43.128 -999 -999 -999 -999 -999
2008-06-26 07:50:47 51°15.333 2°43.097 -999 -999 -999 -999 -999
2008-06-26 07:50:51 51°15.333 2°43.077 -999 -999 -999 -999 -999
2008-06-26 07:50:56 51°15.333 2°43.051 -999 -999 -999 -999 -999
2008-06-26 07:51:01 51°15.331 2°43.025 -999 -999 -999 -999 -999
2008-06-26 07:51:07 51°15.33 2°42.994 -999 -999 -999 -999 -999
2008-06-26 07:51:11 51°15.33 2°42.974 -999 -999 -999 -999 -999
2008-06-26 07:51:16 51°15.329 2°42.948 -999 -999 -999 -999 -999
2008-06-26 07:51:21 51°15.329 2°42.922 -999 -999 -999 -999 -999
2008-06-26 07:51:27 51°15.328 2°42.891 -999 -999 -999 -999 -999
2008-06-26 07:51:31 51°15.327 2°42.87 -999 -999 -999 -999 -999
2008-06-26 07:51:36 51°15.327 2°42.845 -999 -999 -999 -999 -999
2008-06-26 07:51:41 51°15.326 2°42.819 -999 -999 -999 -999 -999
2008-06-26 07:51:46 51°15.325 2°42.793 -999 -999 -999 -999 -999
2008-06-26 07:51:51 51°15.324 2°42.768 -999 -999 -999 -999 -999
2008-06-26 07:51:56 51°15.323 2°42.742 -999 -999 -999 -999 -999
2008-06-26 07:52:01 51°15.322 2°42.716 -999 -999 -999 -999 -999
2008-06-26 07:52:07 51°15.322 2°42.685 -999 -999 -999 -999 -999
2008-06-26 07:52:11 51°15.321 2°42.664 -999 -999 -999 -999 -999
2008-06-26 07:52:16 51°15.321 2°42.638 -999 -999 -999 -999 -999
2008-06-26 07:52:21 51°15.32 2°42.612 -999 -999 -999 -999 -999
2008-06-26 07:52:27 51°15.32 2°42.581 -999 -999 -999 -999 -999
2008-06-26 07:52:31 51°15.32 2°42.56 -999 -999 -999 -999 -999
2008-06-26 07:52:36 51°15.32 2°42.534 -999 -999 -999 -999 -999
2008-06-26 07:52:41 51°15.321 2°42.508 -999 -999 -999 -999 -999
2008-06-26 07:52:46 51°15.321 2°42.482 -999 -999 -999 -999 -999
2008-06-26 07:52:51 51°15.321 2°42.456 -999 -999 -999 -999 -999
2008-06-26 07:52:56 51°15.322 2°42.43 -999 -999 -999 -999 -999
2008-06-26 07:53:01 51°15.323 2°42.404 -999 -999 -999 -999 -999
2008-06-26 07:53:07 51°15.325 2°42.373 -999 -999 -999 -999 -999
2008-06-26 07:53:11 51°15.326 2°42.352 -999 -999 -999 -999 -999
2008-06-26 07:53:16 51°15.328 2°42.326 -999 -999 -999 -999 -999
2008-06-26 07:53:21 51°15.331 2°42.3 -999 -999 -999 -999 -999
2008-06-26 07:53:27 51°15.333 2°42.269 -999 -999 -999 -999 -999
2008-06-26 07:53:31 51°15.336 2°42.249 -999 -999 -999 -999 -999
2008-06-26 07:53:37 51°15.341 2°42.218 -999 -999 -999 -999 -999
2008-06-26 07:53:41 51°15.343 2°42.198 -999 -999 -999 -999 -999
2008-06-26 07:53:47 51°15.348 2°42.166 -999 -999 -999 -999 -999
2008-06-26 07:53:51 51°15.35 2°42.146 -999 -999 -999 -999 -999
2008-06-26 07:53:56 51°15.354 2°42.12 -999 -999 -999 -999 -999
2008-06-26 07:54:01 51°15.357 2°42.095 -999 -999 -999 -999 -999
2008-06-26 07:54:07 51°15.361 2°42.064 -999 -999 -999 -999 -999
2008-06-26 07:54:11 51°15.365 2°42.044 -999 -999 -999 -999 -999
2008-06-26 07:54:16 51°15.368 2°42.018 -999 -999 -999 -999 -999
2008-06-26 07:54:21 51°15.373 2°41.993 -999 -999 -999 -999 -999
2008-06-26 07:54:27 51°15.378 2°41.963 -999 -999 -999 -999 -999
2008-06-26 07:54:31 51°15.382 2°41.943 -999 -999 -999 -999 -999
2008-06-26 07:54:37 51°15.387 2°41.912 -999 -999 -999 -999 -999
2008-06-26 07:54:41 51°15.391 2°41.892 -999 -999 -999 -999 -999
2008-06-26 07:54:47 51°15.398 2°41.862 -999 -999 -999 -999 -999
2008-06-26 07:54:51 51°15.402 2°41.842 -999 -999 -999 -999 -999
2008-06-26 07:54:56 51°15.407 2°41.817 -999 -999 -999 -999 -999
2008-06-26 07:55:01 51°15.413 2°41.792 -999 -999 -999 -999 -999
2008-06-26 07:55:07 51°15.42 2°41.762 -999 -999 -999 -999 -999
2008-06-26 07:55:11 51°15.425 2°41.742 -999 -999 -999 -999 -999
2008-06-26 07:55:17 51°15.432 2°41.712 -999 -999 -999 -999 -999
2008-06-26 07:55:21 51°15.437 2°41.692 -999 -999 -999 -999 -999
2008-06-26 07:55:27 51°15.444 2°41.662 -999 -999 -999 -999 -999
2008-06-26 07:55:31 51°15.45 2°41.643 -999 -999 -999 -999 -999
2008-06-26 07:55:37 51°15.457 2°41.613 -999 -999 -999 -999 -999
2008-06-26 07:55:41 51°15.462 2°41.593 -999 -999 -999 -999 -999
2008-06-26 07:55:46 51°15.467 2°41.568 -999 -999 -999 -999 -999
2008-06-26 07:55:53 51°15.476 2°41.533 -999 -999 -999 -999 -999
2008-06-26 07:55:57 51°15.481 2°41.514 -999 -999 -999 -999 -999
2008-06-26 07:56:01 51°15.485 2°41.494 -999 -999 -999 -999 -999
2008-06-26 07:56:07 51°15.493 2°41.465 -999 -999 -999 -999 -999
2008-06-26 07:56:11 51°15.498 2°41.445 -999 -999 -999 -999 -999
2008-06-26 07:56:17 51°15.506 2°41.415 -999 -999 -999 -999 -999
2008-06-26 07:56:21 51°15.51 2°41.395 -999 -999 -999 -999 -999
2008-06-26 07:56:27 51°15.518 2°41.366 -999 -999 -999 -999 -999
2008-06-26 07:56:31 51°15.523 2°41.346 -999 -999 -999 -999 -999
2008-06-26 07:56:37 51°15.53 2°41.316 -999 -999 -999 -999 -999
2008-06-26 07:56:41 51°15.535 2°41.297 -999 -999 -999 -999 -999
2008-06-26 07:56:47 51°15.542 2°41.267 -999 -999 -999 -999 -999
2008-06-26 07:56:51 51°15.547 2°41.247 -999 -999 -999 -999 -999
2008-06-26 07:56:57 51°15.555 2°41.217 -999 -999 -999 -999 -999
2008-06-26 07:57:01 51°15.56 2°41.198 -999 -999 -999 -999 -999
2008-06-26 07:57:07 51°15.567 2°41.168 -999 -999 -999 -999 -999
2008-06-26 07:57:11 51°15.572 2°41.149 -999 -999 -999 -999 -999
2008-06-26 07:57:17 51°15.58 2°41.119 -999 -999 -999 -999 -999
2008-06-26 07:57:21 51°15.585 2°41.099 -999 -999 -999 -999 -999
2008-06-26 07:57:27 51°15.593 2°41.07 -999 -999 -999 -999 -999
2008-06-26 07:57:31 51°15.598 2°41.051 -999 -999 -999 -999 -999
2008-06-26 07:57:37 51°15.607 2°41.022 -999 -999 -999 -999 -999
2008-06-26 07:57:41 51°15.613 2°41.003 -999 -999 -999 -999 -999
2008-06-26 07:57:47 51°15.621 2°40.974 -999 -999 -999 -999 -999
2008-06-26 07:57:51 51°15.628 2°40.955 -999 -999 -999 -999 -999
2008-06-26 07:57:56 51°15.635 2°40.931 -999 -999 -999 -999 -999
2008-06-26 07:58:01 51°15.643 2°40.907 -999 -999 -999 -999 -999
2008-06-26 07:58:07 51°15.652 2°40.878 -999 -999 -999 -999 -999
2008-06-26 07:58:13 51°15.661 2°40.849 -999 -999 -999 -999 -999
2008-06-26 07:58:17 51°15.667 2°40.83 -999 -999 -999 -999 -999
2008-06-26 07:58:21 51°15.673 2°40.811 -999 -999 -999 -999 -999
2008-06-26 07:58:27 51°15.682 2°40.782 -999 -999 -999 -999 -999
2008-06-26 07:58:31 51°15.688 2°40.763 -999 -999 -999 -999 -999
2008-06-26 07:58:37 51°15.698 2°40.735 -999 -999 -999 -999 -999
2008-06-26 07:58:41 51°15.705 2°40.716 -999 -999 -999 -999 -999
2008-06-26 07:58:47 51°15.715 2°40.689 -999 -999 -999 -999 -999
2008-06-26 07:58:51 51°15.721 2°40.67 -999 -999 -999 -999 -999
2008-06-26 07:58:57 51°15.731 2°40.642 -999 -999 -999 -999 -999
2008-06-26 07:59:01 51°15.738 2°40.623 -999 -999 -999 -999 -999
2008-06-26 07:59:07 51°15.748 2°40.595 -999 -999 -999 -999 -999
2008-06-26 07:59:11 51°15.755 2°40.577 -999 -999 -999 -999 -999
2008-06-26 07:59:17 51°15.765 2°40.549 -999 -999 -999 -999 -999
2008-06-26 07:59:21 51°15.772 2°40.531 -999 -999 -999 -999 -999
2008-06-26 07:59:27 51°15.783 2°40.504 -999 -999 -999 -999 -999
2008-06-26 07:59:31 51°15.79 2°40.485 -999 -999 -999 -999 -999
2008-06-26 07:59:37 51°15.801 2°40.458 -999 -999 -999 -999 -999
2008-06-26 07:59:41 51°15.807 2°40.439 -999 -999 -999 -999 -999
2008-06-26 07:59:47 51°15.818 2°40.412 -999 -999 -999 -999 -999
2008-06-26 07:59:51 51°15.825 2°40.393 -999 -999 -999 -999 -999
2008-06-26 07:59:57 51°15.835 2°40.365 -999 -999 -999 -999 -999
2008-06-26 08:00:01 51°15.841 2°40.347 -999 -999 -999 -999 -999
2008-06-26 08:00:07 51°15.852 2°40.319 -999 -999 -999 -999 -999
2008-06-26 08:00:13 51°15.862 2°40.291 -999 -999 -999 -999 -999
2008-06-26 08:00:17 51°15.868 2°40.272 -999 -999 -999 -999 -999
2008-06-26 08:00:21 51°15.875 2°40.254 -999 -999 -999 -999 -999
2008-06-26 08:00:27 51°15.885 2°40.226 -999 -999 -999 -999 -999
2008-06-26 08:00:31 51°15.892 2°40.207 -999 -999 -999 -999 -999
2008-06-26 08:00:37 51°15.902 2°40.179 -999 -999 -999 -999 -999
2008-06-26 08:00:41 51°15.909 2°40.161 -999 -999 -999 -999 -999
2008-06-26 08:00:47 51°15.918 2°40.132 -999 -999 -999 -999 -999
2008-06-26 08:00:51 51°15.924 2°40.113 -999 -999 -999 -999 -999
2008-06-26 08:00:57 51°15.933 2°40.085 -999 -999 -999 -999 -999
2008-06-26 08:01:01 51°15.939 2°40.066 -999 -999 -999 -999 -999
2008-06-26 08:01:07 51°15.948 2°40.038 -999 -999 -999 -999 -999
2008-06-26 08:01:11 51°15.954 2°40.019 -999 -999 -999 -999 -999
2008-06-26 08:01:17 51°15.963 2°39.99 -999 -999 -999 -999 -999
2008-06-26 08:01:21 51°15.969 2°39.971 -999 -999 -999 -999 -999
2008-06-26 08:01:27 51°15.978 2°39.942 -999 -999 -999 -999 -999
2008-06-26 08:01:31 51°15.984 2°39.923 -999 -999 -999 -999 -999
2008-06-26 08:01:37 51°15.993 2°39.895 -999 -999 -999 -999 -999
2008-06-26 08:01:41 51°15.999 2°39.876 -999 -999 -999 -999 -999
2008-06-26 08:01:47 51°16.009 2°39.848 -999 -999 -999 -999 -999
2008-06-26 08:01:51 51°16.016 2°39.829 -999 -999 -999 -999 -999
2008-06-26 08:01:57 51°16.026 2°39.801 -999 -999 -999 -999 -999
2008-06-26 08:02:01 51°16.032 2°39.783 -999 -999 -999 -999 -999
2008-06-26 08:02:07 51°16.042 2°39.755 -999 -999 -999 -999 -999
2008-06-26 08:02:11 51°16.049 2°39.737 -999 -999 -999 -999 -999
2008-06-26 08:02:17 51°16.058 2°39.708 -999 -999 -999 -999 -999
2008-06-26 08:02:21 51°16.064 2°39.689 -999 -999 -999 -999 -999
2008-06-26 08:02:27 51°16.073 2°39.661 -999 -999 -999 -999 -999
2008-06-26 08:02:33 51°16.083 2°39.632 -999 -999 -999 -999 -999
2008-06-26 08:02:37 51°16.088 2°39.613 -999 -999 -999 -999 -999
2008-06-26 08:02:41 51°16.094 2°39.594 -999 -999 -999 -999 -999
2008-06-26 08:02:47 51°16.103 2°39.566 -999 -999 -999 -999 -999
2008-06-26 08:02:51 51°16.109 2°39.547 -999 -999 -999 -999 -999
2008-06-26 08:02:57 51°16.119 2°39.517 -999 -999 -999 -999 -999
2008-06-26 08:03:01 51°16.125 2°39.499 -999 -999 -999 -999 -999
2008-06-26 08:03:07 51°16.134 2°39.471 -999 -999 -999 -999 -999
2008-06-26 08:03:11 51°16.141 2°39.453 -999 -999 -999 -999 -999
2008-06-26 08:03:17 51°16.151 2°39.425 -999 -999 -999 -999 -999
2008-06-26 08:03:21 51°16.157 2°39.406 -999 -999 -999 -999 -999
2008-06-26 08:03:27 51°16.167 2°39.378 -999 -999 -999 -999 -999
2008-06-26 08:03:31 51°16.173 2°39.36 -999 -999 -999 -999 -999
2008-06-26 08:03:37 51°16.183 2°39.332 -999 -999 -999 -999 -999
2008-06-26 08:03:41 51°16.19 2°39.313 -999 -999 -999 -999 -999
2008-06-26 08:03:47 51°16.199 2°39.285 -999 -999 -999 -999 -999
2008-06-26 08:03:51 51°16.206 2°39.267 -999 -999 -999 -999 -999
2008-06-26 08:03:57 51°16.215 2°39.239 -999 -999 -999 -999 -999
2008-06-26 08:04:01 51°16.222 2°39.22 -999 -999 -999 -999 -999
2008-06-26 08:04:07 51°16.231 2°39.192 -999 -999 -999 -999 -999
2008-06-26 08:04:11 51°16.237 2°39.173 -999 -999 -999 -999 -999
2008-06-26 08:04:17 51°16.246 2°39.144 -999 -999 -999 -999 -999
2008-06-26 08:04:21 51°16.251 2°39.125 -999 -999 -999 -999 -999
2008-06-26 08:04:27 51°16.261 2°39.096 -999 -999 -999 -999 -999
2008-06-26 08:04:33 51°16.27 2°39.068 -999 -999 -999 -999 -999
2008-06-26 08:04:37 51°16.276 2°39.049 -999 -999 -999 -999 -999
2008-06-26 08:04:41 51°16.282 2°39.03 -999 -999 -999 -999 -999
2008-06-26 08:04:47 51°16.292 2°39.002 -999 -999 -999 -999 -999
2008-06-26 08:04:51 51°16.298 2°38.984 -999 -999 -999 -999 -999
2008-06-26 08:04:57 51°16.307 2°38.955 -999 -999 -999 -999 -999
2008-06-26 08:05:01 51°16.313 2°38.936 -999 -999 -999 -999 -999
2008-06-26 08:05:07 51°16.322 2°38.908 -999 -999 -999 -999 -999
2008-06-26 08:05:11 51°16.328 2°38.888 -999 -999 -999 -999 -999
2008-06-26 08:05:17 51°16.337 2°38.86 -999 -999 -999 -999 -999
2008-06-26 08:05:21 51°16.342 2°38.841 -999 -999 -999 -999 -999
2008-06-26 08:05:27 51°16.351 2°38.812 -999 -999 -999 -999 -999
2008-06-26 08:05:31 51°16.357 2°38.793 -999 -999 -999 -999 -999
2008-06-26 08:05:37 51°16.366 2°38.765 -999 -999 -999 -999 -999
2008-06-26 08:05:41 51°16.372 2°38.746 -999 -999 -999 -999 -999
2008-06-26 08:05:47 51°16.381 2°38.718 -999 -999 -999 -999 -999
2008-06-26 08:05:51 51°16.387 2°38.699 -999 -999 -999 -999 -999
2008-06-26 08:05:57 51°16.396 2°38.671 -999 -999 -999 -999 -999
2008-06-26 08:06:01 51°16.402 2°38.652 -999 -999 -999 -999 -999
2008-06-26 08:06:07 51°16.411 2°38.623 -999 -999 -999 -999 -999
2008-06-26 08:06:11 51°16.416 2°38.604 -999 -999 -999 -999 -999
2008-06-26 08:06:17 51°16.425 2°38.576 -999 -999 -999 -999 -999
2008-06-26 08:06:21 51°16.431 2°38.557 -999 -999 -999 -999 -999
2008-06-26 08:06:27 51°16.44 2°38.528 -999 -999 -999 -999 -999
2008-06-26 08:06:31 51°16.446 2°38.509 -999 -999 -999 -999 -999
2008-06-26 08:06:37 51°16.454 2°38.481 -999 -999 -999 -999 -999
2008-06-26 08:06:41 51°16.46 2°38.462 -999 -999 -999 -999 -999
2008-06-26 08:06:47 51°16.469 2°38.433 -999 -999 -999 -999 -999
2008-06-26 08:06:51 51°16.474 2°38.414 -999 -999 -999 -999 -999
2008-06-26 08:06:57 51°16.483 2°38.386 -999 -999 -999 -999 -999
2008-06-26 08:07:01 51°16.489 2°38.366 -999 -999 -999 -999 -999
2008-06-26 08:07:07 51°16.498 2°38.338 -999 -999 -999 -999 -999
2008-06-26 08:07:11 51°16.504 2°38.319 -999 -999 -999 -999 -999
2008-06-26 08:07:17 51°16.513 2°38.291 -999 -999 -999 -999 -999
2008-06-26 08:07:21 51°16.519 2°38.271 -999 -999 -999 -999 -999
2008-06-26 08:07:27 51°16.527 2°38.243 -999 -999 -999 -999 -999
2008-06-26 08:07:31 51°16.533 2°38.224 -999 -999 -999 -999 -999
2008-06-26 08:07:37 51°16.542 2°38.196 -999 -999 -999 -999 -999
2008-06-26 08:07:41 51°16.548 2°38.176 -999 -999 -999 -999 -999
2008-06-26 08:07:47 51°16.557 2°38.148 -999 -999 -999 -999 -999
2008-06-26 08:07:51 51°16.563 2°38.129 -999 -999 -999 -999 -999
2008-06-26 08:07:57 51°16.572 2°38.1 -999 -999 -999 -999 -999
2008-06-26 08:08:01 51°16.578 2°38.081 -999 -999 -999 -999 -999
2008-06-26 08:08:07 51°16.587 2°38.052 -999 -999 -999 -999 -999
2008-06-26 08:08:11 51°16.593 2°38.032 -999 -999 -999 -999 -999
2008-06-26 08:08:17 51°16.603 2°38.004 -999 -999 -999 -999 -999
2008-06-26 08:08:21 51°16.609 2°37.984 -999 -999 -999 -999 -999
2008-06-26 08:08:27 51°16.618 2°37.956 -999 -999 -999 -999 -999
2008-06-26 08:08:31 51°16.625 2°37.937 -999 -999 -999 -999 -999
2008-06-26 08:08:37 51°16.634 2°37.908 -999 -999 -999 -999 -999
2008-06-26 08:08:41 51°16.641 2°37.889 -999 -999 -999 -999 -999
2008-06-26 08:08:47 51°16.65 2°37.86 -999 -999 -999 -999 -999
2008-06-26 08:08:51 51°16.656 2°37.842 -999 -999 -999 -999 -999
2008-06-26 08:08:57 51°16.666 2°37.813 -999 -999 -999 -999 -999
2008-06-26 08:09:01 51°16.673 2°37.794 -999 -999 -999 -999 -999
2008-06-26 08:09:07 51°16.682 2°37.766 -999 -999 -999 -999 -999
2008-06-26 08:09:11 51°16.689 2°37.748 -999 -999 -999 -999 -999
2008-06-26 08:09:17 51°16.698 2°37.72 -999 -999 -999 -999 -999
2008-06-26 08:09:21 51°16.705 2°37.701 -999 -999 -999 -999 -999
2008-06-26 08:09:27 51°16.715 2°37.673 -999 -999 -999 -999 -999
2008-06-26 08:09:33 51°16.725 2°37.646 -999 -999 -999 -999 -999
2008-06-26 08:09:37 51°16.732 2°37.627 -999 -999 -999 -999 -999
2008-06-26 08:09:41 51°16.738 2°37.608 -999 -999 -999 -999 -999
2008-06-26 08:09:47 51°16.748 2°37.581 -999 -999 -999 -999 -999
2008-06-26 08:09:51 51°16.754 2°37.562 -999 -999 -999 -999 -999
2008-06-26 08:09:57 51°16.764 2°37.534 -999 -999 -999 -999 -999
2008-06-26 08:10:01 51°16.771 2°37.517 -999 -999 -999 -999 -999
2008-06-26 08:10:07 51°16.781 2°37.489 -999 -999 -999 -999 -999
2008-06-26 08:10:11 51°16.788 2°37.47 -999 -999 -999 -999 -999
2008-06-26 08:10:17 51°16.797 2°37.443 -999 -999 -999 -999 -999
2008-06-26 08:10:21 51°16.804 2°37.424 -999 -999 -999 -999 -999
2008-06-26 08:10:27 51°16.814 2°37.397 -999 -999 -999 -999 -999
2008-06-26 08:10:32 51°16.822 2°37.373 -999 -999 -999 -999 -999
2008-06-26 08:10:37 51°16.83 2°37.35 -999 -999 -999 -999 -999
2008-06-26 08:10:41 51°16.836 2°37.332 -999 -999 -999 -999 -999
2008-06-26 08:10:47 51°16.846 2°37.304 -999 -999 -999 -999 -999
2008-06-26 08:10:51 51°16.852 2°37.286 -999 -999 -999 -999 -999
2008-06-26 08:10:57 51°16.862 2°37.258 -999 -999 -999 -999 -999
2008-06-26 08:11:01 51°16.868 2°37.239 -999 -999 -999 -999 -999
2008-06-26 08:11:07 51°16.878 2°37.212 -999 -999 -999 -999 -999
2008-06-26 08:11:11 51°16.884 2°37.193 -999 -999 -999 -999 -999
2008-06-26 08:11:17 51°16.893 2°37.165 -999 -999 -999 -999 -999
2008-06-26 08:11:21 51°16.899 2°37.146 -999 -999 -999 -999 -999
2008-06-26 08:11:27 51°16.909 2°37.119 -999 -999 -999 -999 -999
2008-06-26 08:11:31 51°16.915 2°37.1 -999 -999 -999 -999 -999
2008-06-26 08:11:37 51°16.924 2°37.072 -999 -999 -999 -999 -999
2008-06-26 08:11:41 51°16.931 2°37.054 -999 -999 -999 -999 -999
2008-06-26 08:11:47 51°16.94 2°37.025 -999 -999 -999 -999 -999
2008-06-26 08:11:51 51°16.946 2°37.007 -999 -999 -999 -999 -999
2008-06-26 08:11:57 51°16.956 2°36.978 -999 -999 -999 -999 -999
2008-06-26 08:12:01 51°16.962 2°36.96 -999 -999 -999 -999 -999
2008-06-26 08:12:07 51°16.971 2°36.931 -999 -999 -999 -999 -999
2008-06-26 08:12:11 51°16.978 2°36.913 -999 -999 -999 -999 -999
2008-06-26 08:12:17 51°16.987 2°36.885 -999 -999 -999 -999 -999
2008-06-26 08:12:21 51°16.994 2°36.866 -999 -999 -999 -999 -999
2008-06-26 08:12:27 51°17.004 2°36.839 -999 -999 -999 -999 -999
2008-06-26 08:12:31 51°17.01 2°36.82 -999 -999 -999 -999 -999
2008-06-26 08:12:37 51°17.02 2°36.792 -999 -999 -999 -999 -999
2008-06-26 08:12:41 51°17.026 2°36.773 -999 -999 -999 -999 -999
2008-06-26 08:12:47 51°17.035 2°36.745 -999 -999 -999 -999 -999
2008-06-26 08:12:51 51°17.042 2°36.726 -999 -999 -999 -999 -999
2008-06-26 08:12:57 51°17.051 2°36.698 -999 -999 -999 -999 -999
2008-06-26 08:13:01 51°17.058 2°36.679 -999 -999 -999 -999 -999
2008-06-26 08:13:07 51°17.067 2°36.651 -999 -999 -999 -999 -999
2008-06-26 08:13:11 51°17.073 2°36.633 -999 -999 -999 -999 -999
2008-06-26 08:13:17 51°17.082 2°36.604 -999 -999 -999 -999 -999
2008-06-26 08:13:21 51°17.089 2°36.586 -999 -999 -999 -999 -999
2008-06-26 08:13:27 51°17.098 2°36.558 -999 -999 -999 -999 -999
2008-06-26 08:13:31 51°17.105 2°36.539 -999 -999 -999 -999 -999
2008-06-26 08:13:37 51°17.114 2°36.511 -999 -999 -999 -999 -999
2008-06-26 08:13:41 51°17.121 2°36.493 -999 -999 -999 -999 -999
2008-06-26 08:13:47 51°17.131 2°36.465 -999 -999 -999 -999 -999
2008-06-26 08:13:51 51°17.137 2°36.446 -999 -999 -999 -999 -999
2008-06-26 08:13:57 51°17.147 2°36.418 -999 -999 -999 -999 -999
2008-06-26 08:14:01 51°17.154 2°36.4 -999 -999 -999 -999 -999
2008-06-26 08:14:07 51°17.164 2°36.372 -999 -999 -999 -999 -999
2008-06-26 08:14:11 51°17.17 2°36.353 -999 -999 -999 -999 -999
2008-06-26 08:14:17 51°17.179 2°36.324 -999 -999 -999 -999 -999
2008-06-26 08:14:21 51°17.185 2°36.305 -999 -999 -999 -999 -999
2008-06-26 08:14:27 51°17.194 2°36.277 -999 -999 -999 -999 -999
2008-06-26 08:14:31 51°17.201 2°36.258 -999 -999 -999 -999 -999
2008-06-26 08:14:37 51°17.21 2°36.23 -999 -999 -999 -999 -999
2008-06-26 08:14:41 51°17.216 2°36.211 -999 -999 -999 -999 -999
2008-06-26 08:14:47 51°17.225 2°36.182 -999 -999 -999 -999 -999
2008-06-26 08:14:51 51°17.231 2°36.163 -999 -999 -999 -999 -999
2008-06-26 08:14:57 51°17.24 2°36.135 -999 -999 -999 -999 -999
2008-06-26 08:15:01 51°17.246 2°36.116 -999 -999 -999 -999 -999
2008-06-26 08:15:07 51°17.255 2°36.087 -999 -999 -999 -999 -999
2008-06-26 08:15:12 51°17.262 2°36.063 -999 -999 -999 -999 -999
2008-06-26 08:15:17 51°17.269 2°36.039 -999 -999 -999 -999 -999
2008-06-26 08:15:21 51°17.275 2°36.02 -999 -999 -999 -999 -999
2008-06-26 08:15:27 51°17.285 2°35.991 -999 -999 -999 -999 -999
2008-06-26 08:15:31 51°17.291 2°35.972 -999 -999 -999 -999 -999
2008-06-26 08:15:37 51°17.301 2°35.944 -999 -999 -999 -999 -999
2008-06-26 08:15:41 51°17.307 2°35.925 -999 -999 -999 -999 -999
2008-06-26 08:15:47 51°17.317 2°35.897 -999 -999 -999 -999 -999
2008-06-26 08:15:51 51°17.323 2°35.878 -999 -999 -999 -999 -999
2008-06-26 08:15:57 51°17.334 2°35.85 -999 -999 -999 -999 -999
2008-06-26 08:16:01 51°17.34 2°35.831 -999 -999 -999 -999 -999
2008-06-26 08:16:07 51°17.35 2°35.803 -999 -999 -999 -999 -999
2008-06-26 08:16:13 51°17.36 2°35.775 -999 -999 -999 -999 -999
2008-06-26 08:16:17 51°17.366 2°35.756 -999 -999 -999 -999 -999
2008-06-26 08:16:21 51°17.372 2°35.738 -999 -999 -999 -999 -999
2008-06-26 08:16:27 51°17.382 2°35.709 -999 -999 -999 -999 -999
2008-06-26 08:16:32 51°17.39 2°35.686 -999 -999 -999 -999 -999
2008-06-26 08:16:37 51°17.397 2°35.663 -999 -999 -999 -999 -999
2008-06-26 08:16:42 51°17.405 2°35.639 -999 -999 -999 -999 -999
2008-06-26 08:16:47 51°17.412 2°35.615 -999 -999 -999 -999 -999
2008-06-26 08:16:52 51°17.419 2°35.591 -999 -999 -999 -999 -999
2008-06-26 08:16:57 51°17.426 2°35.567 -999 -999 -999 -999 -999
2008-06-26 08:17:01 51°17.432 2°35.547 -999 -999 -999 -999 -999
2008-06-26 08:17:07 51°17.441 2°35.518 -999 -999 -999 -999 -999
2008-06-26 08:17:11 51°17.446 2°35.499 -999 -999 -999 -999 -999
2008-06-26 08:17:17 51°17.455 2°35.471 -999 -999 -999 -999 -999
2008-06-26 08:17:21 51°17.461 2°35.452 -999 -999 -999 -999 -999
2008-06-26 08:17:27 51°17.47 2°35.424 -999 -999 -999 -999 -999
2008-06-26 08:17:31 51°17.476 2°35.405 -999 -999 -999 -999 -999
2008-06-26 08:17:37 51°17.485 2°35.376 -999 -999 -999 -999 -999
2008-06-26 08:17:42 51°17.492 2°35.352 -999 -999 -999 -999 -999
2008-06-26 08:17:47 51°17.499 2°35.328 -999 -999 -999 -999 -999
2008-06-26 08:17:52 51°17.507 2°35.304 -999 -999 -999 -999 -999
2008-06-26 08:17:57 51°17.514 2°35.281 -999 -999 -999 -999 -999
2008-06-26 08:18:02 51°17.522 2°35.257 -999 -999 -999 -999 -999
2008-06-26 08:18:07 51°17.529 2°35.232 -999 -999 -999 -999 -999
2008-06-26 08:18:12 51°17.537 2°35.208 -999 -999 -999 -999 -999
2008-06-26 08:18:17 51°17.544 2°35.184 -999 -999 -999 -999 -999
2008-06-26 08:18:21 51°17.55 2°35.165 -999 -999 -999 -999 -999
2008-06-26 08:18:27 51°17.559 2°35.136 -999 -999 -999 -999 -999
2008-06-26 08:18:31 51°17.566 2°35.118 -999 -999 -999 -999 -999
2008-06-26 08:18:37 51°17.575 2°35.09 -999 -999 -999 -999 -999
2008-06-26 08:18:41 51°17.582 2°35.072 -999 -999 -999 -999 -999
2008-06-26 08:18:47 51°17.592 2°35.044 -999 -999 -999 -999 -999
2008-06-26 08:18:51 51°17.598 2°35.025 -999 -999 -999 -999 -999
2008-06-26 08:18:57 51°17.608 2°34.997 -999 -999 -999 -999 -999
2008-06-26 08:19:01 51°17.615 2°34.979 -999 -999 -999 -999 -999
2008-06-26 08:19:07 51°17.624 2°34.95 -999 -999 -999 -999 -999
2008-06-26 08:19:11 51°17.63 2°34.931 -999 -999 -999 -999 -999
2008-06-26 08:19:17 51°17.64 2°34.903 -999 -999 -999 -999 -999
2008-06-26 08:19:21 51°17.646 2°34.884 -999 -999 -999 -999 -999
2008-06-26 08:19:27 51°17.655 2°34.856 -999 -999 -999 -999 -999
2008-06-26 08:19:31 51°17.661 2°34.837 -999 -999 -999 -999 -999
2008-06-26 08:19:37 51°17.67 2°34.809 -999 -999 -999 -999 -999
2008-06-26 08:19:41 51°17.676 2°34.791 -999 -999 -999 -999 -999
2008-06-26 08:19:47 51°17.685 2°34.764 -999 -999 -999 -999 -999
2008-06-26 08:19:51 51°17.69 2°34.745 -999 -999 -999 -999 -999
2008-06-26 08:19:57 51°17.699 2°34.716 -999 -999 -999 -999 -999
2008-06-26 08:20:01 51°17.704 2°34.697 -999 -999 -999 -999 -999
2008-06-26 08:20:07 51°17.712 2°34.668 -999 -999 -999 -999 -999
2008-06-26 08:20:11 51°17.718 2°34.649 -999 -999 -999 -999 -999
2008-06-26 08:20:17 51°17.726 2°34.62 -999 -999 -999 -999 -999
2008-06-26 08:20:21 51°17.731 2°34.601 -999 -999 -999 -999 -999
2008-06-26 08:20:27 51°17.739 2°34.572 -999 -999 -999 -999 -999
2008-06-26 08:20:33 51°17.746 2°34.543 -999 -999 -999 -999 -999
2008-06-26 08:20:37 51°17.751 2°34.524 -999 -999 -999 -999 -999
2008-06-26 08:20:42 51°17.757 2°34.5 -999 -999 -999 -999 -999
2008-06-26 08:20:47 51°17.763 2°34.475 -999 -999 -999 -999 -999
2008-06-26 08:20:52 51°17.769 2°34.452 -999 -999 -999 -999 -999
2008-06-26 08:20:57 51°17.775 2°34.428 -999 -999 -999 -999 -999
2008-06-26 08:21:01 51°17.779 2°34.408 -999 -999 -999 -999 -999
2008-06-26 08:21:07 51°17.786 2°34.384 -999 -999 -999 -999 -999
2008-06-26 08:21:11 51°17.79 2°34.368 -999 -999 -999 -999 -999
2008-06-26 08:21:17 51°17.795 2°34.347 -999 -999 -999 -999 -999
2008-06-26 08:21:21 51°17.797 2°34.333 -999 -999 -999 -999 -999
2008-06-26 08:21:27 51°17.8 2°34.316 -999 -999 -999 -999 -999
2008-06-26 08:21:31 51°17.802 2°34.305 -999 -999 -999 -999 -999
2008-06-26 08:21:37 51°17.803 2°34.29 -999 -999 -999 -999 -999
2008-06-26 08:21:41 51°17.803 2°34.282 -999 -999 -999 -999 -999
2008-06-26 08:21:47 51°17.804 2°34.271 -999 -999 -999 -999 -999
2008-06-26 08:21:51 51°17.803 2°34.264 -999 -999 -999 -999 -999
2008-06-26 08:21:57 51°17.803 2°34.256 -999 -999 -999 -999 -999
2008-06-26 08:22:01 51°17.802 2°34.252 -999 -999 -999 -999 -999
2008-06-26 08:22:07 51°17.802 2°34.248 -999 -999 -999 -999 -999
2008-06-26 08:22:11 51°17.802 2°34.245 -999 -999 -999 -999 -999
2008-06-26 08:22:17 51°17.802 2°34.243 -999 -999 -999 -999 -999
2008-06-26 08:22:21 51°17.802 2°34.242 -999 -999 -999 -999 -999
2008-06-26 08:22:27 51°17.802 2°34.242 -999 -999 -999 -999 -999
2008-06-26 08:22:31 51°17.802 2°34.242 -999 -999 -999 -999 -999
2008-06-26 08:22:37 51°17.802 2°34.242 -999 -999 -999 -999 -999
2008-06-26 08:22:41 51°17.802 2°34.243 -999 -999 -999 -999 -999
2008-06-26 08:22:47 51°17.802 2°34.243 -999 -999 -999 -999 -999
2008-06-26 08:22:52 51°17.803 2°34.244 -999 -999 -999 -999 -999
2008-06-26 08:22:56 51°17.804 2°34.245 -999 -999 -999 -999 -999
2008-06-26 08:23:01 51°17.804 2°34.246 -999 -999 -999 -999 -999
2008-06-26 08:23:07 51°17.804 2°34.247 -999 -999 -999 -999 -999
2008-06-26 08:23:11 51°17.805 2°34.248 -999 -999 -999 -999 -999
2008-06-26 08:23:16 51°17.805 2°34.249 -999 -999 -999 -999 -999
2008-06-26 08:23:21 51°17.805 2°34.251 -999 -999 -999 -999 -999
2008-06-26 08:23:27 51°17.806 2°34.252 -999 -999 -999 -999 -999
2008-06-26 08:23:32 51°17.807 2°34.254 -999 -999 -999 -999 -999
2008-06-26 08:23:37 51°17.808 2°34.255 -999 -999 -999 -999 -999
2008-06-26 08:23:42 51°17.808 2°34.256 -999 -999 -999 -999 -999